Location: Newark
(39.8867°N, 94.3600°W)
Time: 11:33:49
(UTC+00:00)

N. Korean satellite - Pass Details

Date: 24 January 2020
Orbit: 456 x 505 km, 97.2° (Epoch: 24 February)

Event Time Altitude Azimuth Distance (km) Brightness Sun altitude
Rises 12:26:46 0° 4° (N) 2,535 10.1 -12.7°
Reaches altitude 10° 12:28:52 10° 358° (N) 1,660 9.1 -12.3°
Maximum altitude 12:32:16 45° 286° (WNW) 673 6.8 -11.7°
Drops below altitude 10° 12:35:44 10° 213° (SSW) 1,675 9.1 -11.0°
Sets 12:37:51 0° 206° (SSW) 2,559 10.1 -10.7°
